{"data":{"norad_id":49421,"intl_designator":"2021-104P","name":"STARLINK-3112","alt_names":[],"object_type":"PAYLOAD","status":"ACTIVE","operator":null,"country":"US","launch_date":"2021-11-13","launch_site_code":"AFETR","launch_vehicle":null,"mission":null,"orbit_class":"UNKNOWN","rcs_meters":null,"size_class":null,"mass_kg":null,"dimensions":null,"purposes":["comms"],"wikipedia_slug":null,"has_3d_model":false,"image_url":null,"decayed_at":null,"tle_current":{"epoch":"2026-05-24T17:04:20.111232Z","epoch_age_seconds":104009,"freshness":"FRESH","line1":"1 49421U 21104P   26144.71134388  .00000246  00000+0  33514-4 0  9991","line2":"2 49421  53.2157 247.6542 0000868  83.6063 276.5028 15.08835640250101","mean_motion":15.0883564,"eccentricity":8.68e-5,"inclination_deg":53.2157,"raan_deg":247.6542,"arg_perigee_deg":83.6063,"mean_anomaly_deg":276.5028,"bstar":3.3514e-5,"rev_number":25010,"period_min":95.437830458459,"perigee_km":539.15624259742,"apogee_km":540.35718894648,"semimajor_km":6917.8937157719,"source":"CELESTRAK","updated_at":"2026-05-25T13:38:16.797208Z"}}}